Location: Jarosław
(50.0191°N, 22.6835°E)
Time: 23:56:33
(UTC+02:00)

ISS - Pass Details

Date: 28 March 2019
Orbit: 408 x 410 km, 51.6° (Epoch: 26 April)

Event Time Altitude Azimuth Distance (km) Brightness Sun altitude
Rises 20:55:31 0° 285° (WNW) 2,339 0.9 -26.9°
Reaches altitude 10° 20:57:37 10° 286° (WNW) 1,476 -0.2 -27.1°
Enters shadow 20:58:39 19° 287° (WNW) 1,059 -1.1 -27.2°
